Grand Forks AFB, ND

3:11 AM CDT on October 18, 2017 (GMT -0500)
Grand Forks Air Force Base

Weather History for KRDR - February, 2013

Change the Weather History Date:

Sunday, February 3, 2013

  Actual Average Record
Temperature  
Mean Temperature -1 °F -  
Max Temperature 5 °F 19 °F 37 °F (2005)
Min Temperature -7 °F 1 °F -24 °F (2007)
Degree Days  
Heating Degree Days 66    
Moisture  
Dew Point -5 °F    
Average Humidity 71    
Maximum Humidity 79    
Minimum Humidity 56    
Precipitation  
Precipitation 0.00 in - - ()
Sea Level Pressure  
Sea Level Pressure 30.09 in    
Wind  
Wind Speed 6 mph (North)    
Max Wind Speed 10 mph    
Max Gust Speed -    
Visibility 10 miles    
Events Snow    
Averages and records for this station are not official NWS values.
T = Trace of Precipitation, MM = Missing Value Source: NWS Daily Summary

Daily Weather History Graph

Daily Weather History Graph

Search for Another Location

Airport or City:

Trip Planner

Search our weather history database for the weather conditions in past years. The results will help you decide how hot, cold, wet, or windy it might be!

Date:

Astronomy

Feb. 03, 2013 Rise Set
Actual Time 7:54 AM CST 5:33 PM CST
Civil Twilight 7:21 AM CST 6:06 PM CST
Nautical Twilight 6:43 AM CST 6:43 PM CST
Astronomical Twilight 6:07 AM CST 7:19 PM CST
Moon 1:24 AM CST (2/3) 11:08 AM CST (2/3)
Length of Visible Light 10h 45m
Length of Day
9h 39m
Waning Gibbous, 48% of the Moon is Illuminated
Feb 3
Waning Gibbous
Feb 10
New
Feb 17
First Quarter
Feb 25
Full
Mar 4
Last Quarter

Hourly Weather History & Observations

Time (CST) Temp. Windchill Dew Point Humidity Pressure Visibility Wind Dir Wind Speed Gust Speed Precip Events Conditions
12:55 AM 2.5 °F -8.6 °F -3.3 °F 77% 30.08 in 10.0 mi NNW 5.8 mph - N/A   Clear
1:07 AM 1.4 °F -8.3 °F -5.8 °F 72% 30.08 in 10.0 mi NW 4.6 mph - N/A   Mostly Cloudy
1:09 AM -0.4 °F -10.4 °F -5.8 °F 78% 30.08 in 10.0 mi NW 4.6 mph - N/A   Scattered Clouds
1:11 AM -0.4 °F -12.0 °F -5.8 °F 78% 30.08 in 10.0 mi NW 5.8 mph - N/A   Mostly Cloudy
1:31 AM -0.4 °F -10.4 °F -5.8 °F 78% 30.08 in 10.0 mi NW 4.6 mph - N/A   Scattered Clouds
1:55 AM -1.5 °F -14.7 °F -6.5 °F 79% 30.08 in 10.0 mi NW 6.9 mph - N/A   Partly Cloudy
2:00 AM -2.2 °F -18.0 °F -7.6 °F 78% 30.09 in 10.0 mi WNW 9.2 mph - N/A   Mostly Cloudy
2:24 AM 1.4 °F -13.5 °F -4.0 °F 78% 30.10 in 10.0 mi WNW 9.2 mph - N/A   Overcast
2:38 AM -0.4 °F -13.4 °F -5.8 °F 78% 30.10 in 10.0 mi WNW 6.9 mph - N/A   Scattered Clouds
2:55 AM -0.8 °F -13.9 °F -6.7 °F 76% 30.10 in 10.0 mi NW 6.9 mph - N/A   Partly Cloudy
3:11 AM 1.4 °F -12.5 °F -5.8 °F 72% 30.09 in 10.0 mi NW 8.1 mph - N/A   Partly Cloudy
3:19 AM 1.4 °F -12.5 °F -4.0 °F 78% 30.09 in 10.0 mi NNW 8.1 mph - N/A   Mostly Cloudy
3:21 AM 1.4 °F -12.5 °F -4.0 °F 78% 30.09 in 10.0 mi NW 8.1 mph - N/A   Mostly Cloudy
3:31 AM 1.4 °F -12.5 °F -4.0 °F 78% 30.08 in 10.0 mi NW 8.1 mph - N/A   Scattered Clouds
3:55 AM 1.4 °F -12.5 °F -4.7 °F 76% 30.09 in 10.0 mi NW 8.1 mph - N/A   Scattered Clouds
4:00 AM 1.4 °F -12.5 °F -4.0 °F 78% 30.10 in 10.0 mi WNW 8.1 mph - N/A   Mostly Cloudy
4:21 AM 3.2 °F -10.3 °F -2.2 °F 78% 30.10 in 10.0 mi NW 8.1 mph - N/A   Overcast
4:27 AM 3.2 °F -11.3 °F -2.2 °F 78% 30.10 in 10.0 mi NW 9.2 mph - N/A   Overcast
4:29 AM 5.0 °F -9.1 °F -2.2 °F 72% 30.10 in 10.0 mi NW 9.2 mph - N/A Snow Light Snow
4:32 AM 5.0 °F -10.0 °F -2.2 °F 72% 30.10 in 10.0 mi NNW 10.4 mph - N/A Snow Light Snow
4:55 AM 4.3 °F -9.0 °F -2.0 °F 75% 30.10 in 10.0 mi NNW 8.1 mph - 0.00 in Snow Light Snow
5:07 AM 5.0 °F -9.1 °F -2.2 °F 72% 30.10 in 10.0 mi NNW 9.2 mph - N/A Snow Light Snow
5:08 AM 5.0 °F -9.1 °F -2.2 °F 72% 30.10 in 10.0 mi NNW 9.2 mph - N/A   Overcast
5:10 AM 5.0 °F -8.1 °F -2.2 °F 72% 30.10 in 10.0 mi NNW 8.1 mph - N/A   Overcast
5:13 AM 5.0 °F -9.1 °F -2.2 °F 72% 30.10 in 10.0 mi NNW 9.2 mph - N/A   Overcast
5:55 AM 3.0 °F -9.3 °F -2.9 °F 76% 30.10 in 10.0 mi North 6.9 mph - 0.00 in   Overcast
6:55 AM 3.4 °F -7.5 °F -2.6 °F 76% 30.12 in 10.0 mi NNE 5.8 mph - N/A   Overcast
7:55 AM 2.1 °F -5.4 °F -4.0 °F 76% 30.12 in 10.0 mi NNE 3.5 mph - N/A   Overcast
8:40 AM 3.2 °F -4.2 °F -5.8 °F 66% 30.12 in 10.0 mi NNE 3.5 mph - N/A   Overcast
8:55 AM 2.3 °F -5.2 °F -5.6 °F 70% 30.12 in 10.0 mi NNE 3.5 mph - N/A   Overcast
9:53 AM 3.2 °F -4.2 °F -7.6 °F 61% 30.11 in 10.0 mi NE 3.5 mph - N/A   Overcast
9:55 AM 3.0 °F -4.4 °F -6.9 °F 63% 30.11 in 10.0 mi NNE 3.5 mph - N/A   Overcast
10:08 AM 3.2 °F -4.2 °F -7.6 °F 61% 30.11 in 10.0 mi NNE 3.5 mph - N/A   Overcast
10:44 AM 3.2 °F - -7.6 °F 61% 30.10 in 9.0 mi Calm Calm - N/A   Overcast
10:55 AM 3.9 °F -3.4 °F -8.0 °F 58% 30.10 in 10.0 mi NE 3.5 mph - N/A   Mostly Cloudy
11:01 AM 5.0 °F -2.1 °F -7.6 °F 56% 30.10 in 10.0 mi ENE 3.5 mph - N/A   Scattered Clouds
11:55 AM 5.2 °F -3.8 °F -7.6 °F 56% 30.08 in 10.0 mi ESE 4.6 mph - N/A   Clear
12:55 PM 5.2 °F -5.4 °F -6.2 °F 60% 30.07 in 10.0 mi ESE 5.8 mph - N/A   Mostly Cloudy
1:55 PM 5.4 °F -3.6 °F -6.9 °F 57% 30.06 in 10.0 mi ESE 4.6 mph - N/A   Overcast
2:55 PM 5.4 °F -1.7 °F -6.0 °F 60% 30.06 in 10.0 mi East 3.5 mph - N/A   Overcast
3:55 PM 5.0 °F -4.1 °F -6.2 °F 60% 30.05 in 10.0 mi East 4.6 mph - N/A   Overcast
4:55 PM 4.5 °F - -6.5 °F 60% 30.06 in 10.0 mi Calm Calm - N/A   Overcast
5:55 PM 3.6 °F -3.8 °F -5.8 °F 65% 30.06 in 10.0 mi ENE 3.5 mph - N/A   Overcast
6:55 PM 0.7 °F -10.7 °F -7.8 °F 68% 30.06 in 10.0 mi ENE 5.8 mph - N/A   Partly Cloudy
7:55 PM -2.7 °F - -10.1 °F 71% 30.07 in 10.0 mi Calm Calm - N/A   Clear
8:55 PM -7.1 °F - -13.0 °F 75% 30.08 in 10.0 mi Calm Calm - N/A   Mostly Cloudy
9:55 PM -4.0 °F - -9.4 °F 78% 30.09 in 10.0 mi Calm Calm - N/A   Overcast
10:55 PM -2.4 °F - -7.8 °F 78% 30.08 in 10.0 mi Calm Calm - N/A   Overcast
11:55 PM -0.4 °F - -6.0 °F 77% 30.08 in 10.0 mi Calm Calm - N/A   Overcast